NANOSAT-1

Last updated on Fri Dec 29 2023 00:03:02 GMT+0000 (Coordinated Universal Time)

1 28493U 04049B 23362.46617469 .00001952 00000+0 29313-3 0 9999 2 28493 98.1351 109.8029 0003243 318.5356 41.5606 14.75701781 22262
UTC large
Height (km)
Speed (km/s)
/
Latitude / Longitude
Inclination (degrees)
Orbital Period (minutes)
Azimuth
Elevation
Range (km)
Doppler Factor

Next 0 passes for location: London (51.5072 / 0.1276)

Sorry there are no passes over London.